User: anonymous   Login
Location: Weston
(26.1283°N, 80.4075°W)
Time: 12:10:15
(UTC-04:00)
Language:

H-2A R/B - Orbit

View from above orbital plane
View from above orbital plane
View from above satellite
View from above satellite

Ground track
Ground track

The orbit data is extracted from the following two-line orbital elements,

1 26899U 01038B   18173.70729695 +.00000501 +00000-0 +14534-3 0  9997
2 26899 027.9675 274.5016 7110666 073.8493 348.6347 02.48953602145721
Epoch (UTC): 22 June 2018 16:58:30
Eccentricity: 0.7110666
inclination: 27.9675°
perigee height: 266 km
apogee height: 32969 km
right ascension of ascending node: 274.5016°
argument of perigee: 73.8493°
revolutions per day: 2.48953602
mean anomaly at epoch: 348.6347°
orbit number at epoch: 14572

The dashed part of the orbit path shows where the satellite is in the earth's shadow,  

DLR